Content
SEND FEEDBACK

Daily
Averages
Monthly
Summary
United States of America

UMATAC, GUAM


Home > North America > United States > Guam
Elevation: 190 feet     Latitude: 13 17N     Longitude: 144 40E

WEATHER
 
SELECT A DAY
Number of Records: 342,219;   Date Range: 1/1/95 - 8/28/14
 
SHARE

PRINT THIS DATA

[ ← Previous Day ]
WEATHER ALMANAC - DECEMBER 17, 2013
[ Next Day → ]
[ °C ]   °F
Weather ElementAverageHighLow
Temperature79.6 °F83.1 °F (9:58 am)78.4 °F (4:58 am)
Dewpoint76 °F79.2 °F (11:58 am) (7:00 pm)
Humidity91.4 %100 % (10:50 am)82 % (9:58 am)
Barometer29.83 in29.89 in (8:28 am)29.76 in (2:58 am)
Wind Speed16.4 mph21.9 mph (10:32 am)
Wind Gust27.6 mph (10:42 am)
Weather ElementAverage
Visibility8.6 mi
Wind DirectionENE (55.6 °)

Weather ElementTotal
Precipitation0.17 in
Cooling Degree Days15.8 (Base 65)
Growing Degree Days30.8 (Base 50)
Averaged from 101 records on December 17, 2013
WEATHER CONDITIONS BREAKOUT
WIND DIRECTION BREAKOUT
WEATHER BY HOUR - DECEMBER 17, 2013
[ °C ]   °F
Local TimeTemperatureDewpointHumidityBarometerVisibilityWind DirectionWind SpeedGust SpeedPrecipitationEventsConditions
12:58 AM79.3 °F75.6 °F88 %29.81 in10.0 miENE (60°)13.8 mphMostly Cloudy
1:08 AM78.8 °F75.2 °F89 %29.83 in10.0 miENE (60°)15.0 mphMostly Cloudy
1:13 AM78.8 °F75.2 °F89 %29.83 in10.0 miENE (60°)13.8 mphScattered Clouds
1:38 AM78.8 °F75.2 °F89 %29.82 in10.0 miNE (50°)16.1 mphMostly Cloudy
1:43 AM78.8 °F73.4 °F83 %29.81 in10.0 miENE (60°)12.7 mphMostly Cloudy
1:58 AM78.8 °F73.8 °F84 %29.78 in10.0 miENE (60°)11.5 mphScattered Clouds
2:18 AM78.8 °F73.4 °F83 %29.81 in10.0 miENE (60°)15.0 mphMostly Cloudy
2:23 AM78.8 °F75.2 °F89 %29.80 in10.0 miENE (60°)16.1 mphScattered Clouds
2:58 AM79.0 °F74.7 °F87 %29.76 in10.0 miENE (60°)15.0 mphPartly Cloudy
3:58 AM78.8 °F75.2 °F89 %29.77 in10.0 miNE (50°)16.1 mphMostly Cloudy
4:03 AM78.8 °F75.2 °F89 %29.80 in10.0 miENE (60°)15.0 mphMostly Cloudy
4:08 AM78.8 °F75.2 °F89 %29.80 in10.0 miNE (50°)16.1 mphMostly Cloudy
4:18 AM78.8 °F75.2 °F89 %29.81 in10.0 miENE (60°)15.0 mphScattered Clouds
4:58 AM78.4 °F74.1 °F87 %29.78 in10.0 miENE (60°)13.8 mphPartly Cloudy
5:28 AM78.8 °F75.2 °F89 %29.82 in10.0 miENE (60°)13.8 mphScattered Clouds
5:33 AM78.8 °F75.2 °F89 %29.82 in10.0 miENE (60°)13.8 mphMostly Cloudy
5:43 AM78.8 °F75.2 °F89 %29.82 in10.0 miENE (60°)13.8 mphScattered Clouds
5:58 AM78.6 °F75.2 °F89 %29.81 in10.0 miENE (60°)12.7 mphScattered Clouds
6:51 AM78.8 °F75.2 °F89 %29.84 in6.0 miENE (60°)13.8 mphRainLight Rain
6:56 AM78.8 °F77.0 °F94 %29.84 in5.0 miENE (60°)12.7 mphRainLight Rain
6:58 AM78.6 °F76.6 °F94 %29.82 in5.0 miENE (60°)12.7 mph0.00 inRainLight Rain
7:03 AM78.8 °F77.0 °F94 %29.85 in10.0 miENE (60°)12.7 mphRainLight Rain
7:04 AM78.8 °F77.0 °F94 %29.85 in10.0 miENE (60°)12.7 mphScattered Clouds
7:34 AM78.8 °F77.0 °F94 %29.86 in10.0 miENE (60°)12.7 mphMostly Cloudy
7:54 AM78.8 °F77.0 °F94 %29.87 in10.0 miENE (60°)13.8 mphMostly Cloudy
7:58 AM79.2 °F76.5 °F91 %29.84 in10.0 miENE (60°)12.7 mph0.00 inScattered Clouds
8:23 AM80.6 °F77.0 °F89 %29.88 in10.0 miENE (70°)15.0 mphMostly Cloudy
8:28 AM80.6 °F75.2 °F84 %29.89 in10.0 miENE (70°)18.4 mphScattered Clouds
8:58 AM81.5 °F76.5 °F85 %29.86 in10.0 miENE (70°)17.3 mphScattered Clouds
9:08 AM82.4 °F77.0 °F84 %29.88 in10.0 miENE (60°)16.1 mphMostly Cloudy
9:13 AM82.4 °F77.0 °F84 %29.88 in10.0 miENE (60°)16.1 mphMostly Cloudy
9:23 AM82.4 °F77.0 °F84 %29.88 in10.0 miENE (70°)16.1 mphMostly Cloudy
9:33 AM82.4 °F77.0 °F84 %29.88 in10.0 miENE (70°)18.4 mph24.2 mphMostly Cloudy
9:38 AM82.4 °F77.0 °F84 %29.88 in10.0 miENE (60°)16.1 mph24.2 mphScattered Clouds
9:58 AM83.1 °F77.2 °F82 %29.86 in10.0 miENE (70°)16.1 mphScattered Clouds
10:21 AM80.6 °F77.0 °F89 %29.87 in6.0 miENE (70°)17.3 mph24.2 mphRainLight Rain
10:26 AM80.6 °F78.8 °F94 %29.87 in4.0 miENE (70°)16.1 mph24.2 mphRainLight Rain
10:31 AM80.6 °F78.8 °F94 %29.87 in5.0 miENE (60°)19.6 mphRainLight Rain
10:32 AM80.6 °F78.8 °F94 %29.87 in7.0 miENE (60°)21.9 mphMostly Cloudy
10:42 AM80.6 °F77.0 °F89 %29.87 in9.0 miNE (50°)18.4 mph27.6 mphMostly Cloudy
10:45 AM78.8 °F77.0 °F94 %29.87 in3.0 miNE (50°)13.8 mph27.6 mphRainLight Rain
10:50 AM78.8 °F78.8 °F100 %29.87 in2.5 miENE (60°)17.3 mph20.7 mphRainLight Rain
10:55 AM78.8 °F78.8 °F100 %29.87 in5.0 miNE (50°)19.6 mphRainLight Rain
10:56 AM78.8 °F78.8 °F100 %29.87 in6.0 miNE (50°)18.4 mphMostly Cloudy
10:58 AM78.8 °F78.8 °F100 %29.84 in6.0 miNE (50°)15.0 mph0.01 inMostly Cloudy
10:59 AM78.8 °F78.8 °F100 %29.87 in5.0 miNE (50°)12.7 mphRainLight Rain
11:04 AM78.8 °F78.8 °F100 %29.87 in5.0 miENE (60°)11.5 mphLight Drizzle
11:09 AM78.8 °F78.8 °F100 %29.87 in2.5 miENE (60°)11.5 mph19.6 mphRainRain
11:14 AM78.8 °F78.8 °F100 %29.86 in1.8 miNE (50°)13.8 mphRainHeavy Rain
11:19 AM78.8 °F78.8 °F100 %29.86 in3.0 miENE (60°)18.4 mph25.3 mphRainLight Rain
11:21 AM78.8 °F78.8 °F100 %29.86 in9.0 miNE (50°)18.4 mph25.3 mphMostly Cloudy
11:36 AM80.6 °F78.8 °F94 %29.86 in10.0 miENE (60°)19.6 mphScattered Clouds
11:58 AM80.4 °F79.2 °F96 %29.82 in10.0 miNE (50°)17.3 mph0.05 inScattered Clouds
12:08 PM80.6 °F78.8 °F94 %29.85 in10.0 miNE (50°)16.1 mph25.3 mphMostly Cloudy
12:12 PM78.8 °F78.8 °F100 %29.84 in6.0 miNE (50°)13.8 mph25.3 mphRainLight Rain
12:17 PM78.8 °F78.8 °F100 %29.84 in1.2 miNE (40°)9.2 mphRainHeavy Rain
12:27 PM78.8 °F78.8 °F100 %29.83 in7.0 miNE (50°)20.7 mph25.3 mphRainLight Rain
12:29 PM78.8 °F78.8 °F100 %29.83 in10.0 miNE (50°)19.6 mph25.3 mphOvercast
12:34 PM78.8 °F78.8 °F100 %29.83 in10.0 miNE (40°)18.4 mph25.3 mphOvercast
12:39 PM80.6 °F0.0 °F29.83 in10.0 miNE (50°)20.7 mph25.3 mphOvercast
12:58 PM80.2 °F79.2 °F96 %29.79 in10.0 miNE (50°)17.3 mph0.08 inMostly Cloudy
1:13 PM80.6 °F78.8 °F94 %29.81 in10.0 miNE (50°)16.1 mph25.3 mphOvercast
1:53 PM80.6 °F78.8 °F94 %29.79 in10.0 miNE (50°)12.7 mphMostly Cloudy
1:58 PM80.6 °F77.0 °F89 %29.76 in10.0 miNE (50°)15.0 mphMostly Cloudy
2:28 PM80.6 °F78.8 °F94 %29.79 in8.0 miNE (50°)16.1 mphLight Drizzle
2:33 PM80.6 °F77.0 °F89 %29.79 in5.0 miENE (70°)13.8 mphLight Drizzle
2:38 PM78.8 °F78.8 °F100 %29.79 in2.0 miNE (50°)11.5 mphRainLight Rain
2:43 PM78.8 °F78.8 °F100 %29.79 in1.5 miENE (70°)12.7 mphRainLight Rain
2:48 PM78.8 °F78.8 °F100 %29.79 in2.5 miENE (60°)18.4 mph23.0 mphRainLight Rain
2:53 PM78.8 °F78.8 °F100 %29.79 in6.0 miNE (50°)20.7 mph27.6 mphRainLight Rain
2:58 PM79.0 °F77.5 °F95 %29.76 in10.0 miNE (50°)19.6 mph27.6 mph0.03 inRainLight Rain
2:59 PM78.8 °F77.0 °F94 %29.79 in10.0 miNE (50°)20.7 mph27.6 mphMostly Cloudy
3:24 PM80.6 °F78.8 °F94 %29.79 in10.0 miNE (50°)19.6 mph24.2 mphMostly Cloudy
3:39 PM80.6 °F77.0 °F89 %29.79 in10.0 miENE (60°)17.3 mphScattered Clouds
3:44 PM80.6 °F77.0 °F89 %29.79 in10.0 miENE (60°)16.1 mphMostly Cloudy
3:49 PM80.6 °F77.0 °F89 %29.78 in10.0 miENE (60°)17.3 mphScattered Clouds
3:54 PM80.6 °F77.0 °F89 %29.79 in10.0 miNE (50°)18.4 mphMostly Cloudy
3:58 PM80.4 °F77.5 °F91 %29.76 in10.0 miNE (50°)19.6 mph0.00 inMostly Cloudy
4:03 PM80.6 °F77.0 °F89 %29.79 in10.0 miNE (50°)19.6 mphMostly Cloudy
4:08 PM80.6 °F77.0 °F89 %29.79 in10.0 miNE (50°)18.4 mph26.5 mphMostly Cloudy
4:48 PM80.6 °F77.0 °F89 %29.80 in10.0 miNE (50°)18.4 mphMostly Cloudy
4:58 PM79.9 °F76.5 °F89 %29.77 in10.0 miNE (50°)17.3 mphMostly Cloudy
5:13 PM80.6 °F77.0 °F89 %29.80 in10.0 miNE (50°)16.1 mphMostly Cloudy
5:53 PM78.8 °F75.2 °F89 %29.82 in10.0 miNE (50°)19.6 mphOvercast
5:58 PM79.5 °F75.9 °F89 %29.79 in10.0 miNE (50°)18.4 mphOvercast
6:03 PM78.8 °F75.2 °F89 %29.82 in10.0 miENE (60°)19.6 mphOvercast
6:13 PM78.8 °F75.2 °F89 %29.82 in10.0 miNE (50°)16.1 mphMostly Cloudy
6:18 PM78.8 °F75.2 °F89 %29.82 in10.0 miNE (50°)19.6 mphMostly Cloudy
6:23 PM78.8 °F75.2 °F89 %29.82 in10.0 miNE (50°)19.6 mphMostly Cloudy
6:33 PM78.8 °F75.2 °F89 %29.83 in10.0 miNE (50°)18.4 mphMostly Cloudy
6:38 PM78.8 °F75.2 °F89 %29.83 in10.0 miNE (50°)20.7 mphMostly Cloudy
6:43 PM78.8 °F77.0 °F94 %29.83 in10.0 miNE (50°)18.4 mphMostly Cloudy
6:58 PM79.5 °F76.3 °F90 %29.81 in10.0 miNE (50°)18.4 mphMostly Cloudy
7:28 PM78.8 °F75.2 °F89 %29.84 in10.0 miNE (50°)19.6 mphMostly Cloudy
7:53 PM78.8 °F75.2 °F89 %29.84 in10.0 miENE (60°)18.4 mphMostly Cloudy
7:58 PM78.8 °F75.2 °F89 %29.82 in10.0 miENE (60°)19.6 mphMostly Cloudy
8:58 PM79.0 °F75.2 °F88 %29.83 in10.0 miNE (50°)17.3 mphPartly Cloudy
9:58 PM78.8 °F74.7 °F87 %29.82 in10.0 miNE (40°)16.1 mph24.2 mphClear
10:58 PM78.8 °F73.8 °F84 %29.82 in10.0 miNE (50°)17.3 mph24.2 mphPartly Cloudy
11:08 PM78.8 °F73.4 °F83 %29.85 in10.0 miNE (50°)18.4 mphMostly Cloudy
11:58 PM78.8 °F73.9 °F85 %29.81 in10.0 miNE (50°)17.3 mphOvercast
Hourly data recorded from PGUA, located miles away from Umatac, Guam







STORIES FROM OUR PARTNERS